Location: Maddington
(51.2000°N, 1.9167°W)
Time: 22:22:19
(UTC+00:00)

NOSS 3-2 (A) - Pass Details

Date: 25 January 2021
Orbit: 783 x 1425 km, 63.4° (Epoch: 07 March)

Event Time Altitude Azimuth Distance (km) Brightness Sun altitude
Rises 04:38:55 0° 172° (S) 3,327 6.3 -30.4°
Reaches altitude 10° 04:41:48 10° 157° (SSE) 2,459 5.8 -29.9°
Maximum altitude 04:45:55 21° 110° (ESE) 1,911 5.6 -29.3°
Drops below altitude 10° 04:50:24 10° 64° (ENE) 2,722 6.7 -28.6°
Sets 04:53:47 0° 49° (NE) 3,795 7.4 -28.1°
